Location: Hradec Kralove
(50.2170°N, 15.8330°E)
Time: 02:59:46
(UTC+02:00)

CAS-4B - Visible Passes

Search period start: 18 September 2024 00:00
Search period end: 28 September 2024 00:00
Orbit: 456 x 475 km, 43.0° (Epoch: 17 September)

Date Brightness Start Highest point End Pass type
(mag) Time Alt. Az. Time Alt. Az. Time Alt. Az.
25 Sep ? 05:49:35 10° SSW 05:51:47 15° SSE 05:54:01 10° ESE visible
26 Sep ? 05:15:19 10° S 05:17:13 14° SSE 05:19:13 10° ESE visible
27 Sep ? 04:42:16 13° SSE 04:42:29 13° SSE 04:44:14 10° SE visible
27 Sep ? 06:17:09 10° SW 06:20:11 25° S 06:23:13 10° ESE visible
